Location: Unspecified
(0.0000°N, 0.0000°E)
Time: 15:52:45
(UTC+00:00)

Cosmos 2499 - Visible Passes

Search period start: 28 May 2023 00:00
Search period end: 07 June 2023 00:00
Orbit: 1151 x 1509 km, 82.4° (Epoch: 28 May)

Date Brightness Start Highest point End Pass type
(mag) Time Alt. Az. Time Alt. Az. Time Alt. Az.
28 May ? 02:27:48 25° NNE 02:27:48 25° NNE 02:30:32 10° NNE visible
29 May ? 02:48:18 23° N 02:48:18 23° N 02:50:41 10° N visible
30 May ? 03:08:45 17° NNW 03:08:45 17° NNW 03:10:18 10° NNW visible
31 May ? 01:36:50 11° NNE 01:36:50 11° NNE 01:37:04 10° NNE visible
31 May ? 03:29:11 10° NW 03:29:11 10° NW 03:29:15 10° NNW visible
01 Jun ? 01:57:14 13° NNE 01:57:14 13° NNE 01:57:53 10° NNE visible
02 Jun ? 02:17:35 13° N 02:17:35 13° N 02:18:09 10° N visible
